Terminal Aerodrome Forecast
Issued by NWS

Home | Current Version | Previous Version | Text Only | Print | Product List | Glossary On
Versions: 1 2 3 4 5 6 7 8 9 10 11 12 13 14 15 16 17
000
FTUS41 KGYX 271720
TAFRKD
TAF
KRKD 271720Z 2718/2818 22008KT P6SM SCT050
      TEMPO 2721/2723 5SM -SHRA BR BKN040
     FM280100 34004KT P6SM SCT040
     FM280600 32005KT P6SM SCT100
      AMD LTD TO CLD VIS AND WIND=

USA.gov is the U.S. government's official web portal to all federal, state and local government web resources and services.